Storm Lake, IA

11:32 PM CST on February 24, 2017 (GMT -0600)
Storm Lake Municipal

Weather History for KSLB - November, 2013

Change the Weather History Date:

Saturday, November 9, 2013

  Actual Average Record
Temperature  
Mean Temperature 40 °F -  
Max Temperature 51 °F 47 °F 71 °F (1999)
Min Temperature 30 °F 30 °F 19 °F (2003)
Degree Days  
Heating Degree Days 24    
Moisture  
Dew Point 33 °F    
Average Humidity 72    
Maximum Humidity 87    
Minimum Humidity 54    
Precipitation  
Precipitation 0.00 in - - ()
Sea Level Pressure  
Sea Level Pressure 30.05 in    
Wind  
Wind Speed 17 mph (WNW)    
Max Wind Speed 26 mph    
Max Gust Speed 34 mph    
Visibility 10 miles    
Events      
Averages and records for this station are not official NWS values.
T = Trace of Precipitation, MM = Missing Value Source: NWS Daily Summary

Daily Weather History Graph

Daily Weather History Graph

Search for Another Location

Airport or City:

Trip Planner

Search our weather history database for the weather conditions in past years. The results will help you decide how hot, cold, wet, or windy it might be!

Date:

Astronomy

Nov. 09, 2013 Rise Set
Actual Time 7:05 AM CST 5:03 PM CST
Civil Twilight 6:35 AM CST 5:33 PM CST
Nautical Twilight 6:01 AM CST 6:07 PM CST
Astronomical Twilight 5:28 AM CST 6:40 PM CST
Moon 12:41 PM CST (11/9) 11:37 PM CST (11/9)
Length of Visible Light 10h 58m
Length of Day
9h 58m
Waxing Crescent, 44% of the Moon is Illuminated
Nov 9
Waxing Crescent
Nov 9
First Quarter
Nov 17
Full
Nov 25
Last Quarter
Dec 2
New

Hourly Weather History & Observations

Time (CST) Temp. Windchill Dew Point Humidity Pressure Visibility Wind Dir Wind Speed Gust Speed Precip Events Conditions
12:15 AM 44.6 °F 36.6 °F 35.6 °F 71% 29.79 in 10.0 mi West 19.6 mph - N/A   Clear
12:35 AM 44.6 °F 36.9 °F 35.6 °F 71% 29.80 in 10.0 mi West 18.4 mph 24.2 mph N/A   Clear
12:55 AM 44.6 °F 37.4 °F 35.6 °F 71% 29.80 in 10.0 mi West 16.1 mph 21.9 mph N/A   Clear
1:15 AM 44.6 °F 37.8 °F 35.6 °F 71% 29.80 in 10.0 mi West 15.0 mph - N/A   Clear
1:35 AM 42.8 °F 35.1 °F 35.6 °F 76% 29.81 in 10.0 mi West 16.1 mph - N/A   Clear
1:55 AM 41.0 °F 32.8 °F 35.6 °F 81% 29.82 in 10.0 mi West 16.1 mph - N/A   Clear
2:15 AM 41.0 °F 33.1 °F 33.8 °F 76% 29.82 in 10.0 mi West 15.0 mph - N/A   Clear
2:35 AM 41.0 °F 33.1 °F 33.8 °F 76% 29.82 in 10.0 mi West 15.0 mph - N/A   Clear
2:55 AM 41.0 °F 33.5 °F 33.8 °F 76% 29.83 in 10.0 mi West 13.8 mph - N/A   Clear
3:15 AM 41.0 °F 32.8 °F 33.8 °F 76% 29.83 in 10.0 mi West 16.1 mph - N/A   Clear
3:35 AM 41.0 °F 33.9 °F 33.8 °F 76% 29.85 in 10.0 mi WSW 12.7 mph 18.4 mph N/A   Clear
3:55 AM 41.0 °F 32.8 °F 33.8 °F 76% 29.85 in 10.0 mi West 16.1 mph - N/A   Clear
4:15 AM 41.0 °F 33.1 °F 33.8 °F 76% 29.86 in 10.0 mi West 15.0 mph - N/A   Clear
4:35 AM 41.0 °F 33.1 °F 33.8 °F 76% 29.87 in 10.0 mi West 15.0 mph - N/A   Clear
4:55 AM 41.0 °F 33.1 °F 33.8 °F 76% 29.88 in 10.0 mi West 15.0 mph - N/A   Clear
5:15 AM 39.2 °F 31.2 °F 33.8 °F 81% 29.89 in 10.0 mi West 13.8 mph - N/A   Clear
5:35 AM 39.2 °F 30.8 °F 33.8 °F 81% 29.89 in 10.0 mi West 15.0 mph - N/A   Clear
5:55 AM 39.2 °F 30.8 °F 33.8 °F 81% 29.90 in 10.0 mi West 15.0 mph - N/A   Clear
6:15 AM 39.2 °F 31.2 °F 32.0 °F 75% 29.92 in 10.0 mi West 13.8 mph - N/A   Clear
6:35 AM 39.2 °F 30.8 °F 32.0 °F 75% 29.92 in 10.0 mi West 15.0 mph - N/A   Clear
6:55 AM 37.4 °F 28.9 °F 32.0 °F 81% 29.94 in 10.0 mi West 13.8 mph - N/A   Clear
7:15 AM 39.2 °F 31.2 °F 33.8 °F 81% 29.95 in 10.0 mi WNW 13.8 mph - N/A   Clear
7:35 AM 37.4 °F 29.8 °F 33.8 °F 87% 29.96 in 10.0 mi West 11.5 mph - N/A   Clear
7:55 AM 39.2 °F 31.6 °F 33.8 °F 81% 29.97 in 10.0 mi West 12.7 mph - N/A   Clear
8:15 AM 39.2 °F 30.8 °F 33.8 °F 81% 29.98 in 10.0 mi West 15.0 mph - N/A   Clear
8:35 AM 41.0 °F 32.5 °F 35.6 °F 81% 30.00 in 10.0 mi West 17.3 mph - N/A   Clear
8:55 AM 42.8 °F 34.3 °F 35.6 °F 76% 30.01 in 10.0 mi WNW 19.6 mph 25.3 mph N/A   Clear
9:15 AM 42.8 °F 34.5 °F 35.6 °F 76% 30.02 in 10.0 mi WNW 18.4 mph 27.6 mph N/A   Clear
9:35 AM 44.6 °F 36.1 °F 35.6 °F 71% 30.02 in 10.0 mi WNW 21.9 mph 28.8 mph N/A   Clear
9:55 AM 44.6 °F 36.1 °F 35.6 °F 71% 30.04 in 10.0 mi WNW 21.9 mph 28.8 mph N/A   Clear
10:15 AM 46.4 °F 38.1 °F 35.6 °F 66% 30.04 in 10.0 mi WNW 24.2 mph 31.1 mph N/A   Clear
10:35 AM 46.4 °F 38.1 °F 35.6 °F 66% 30.05 in 10.0 mi WNW 24.2 mph - N/A   Clear
10:55 AM 46.4 °F 38.1 °F 35.6 °F 66% 30.06 in - WNW 24.2 mph 29.9 mph N/A   Clear
11:15 AM 48.2 °F - 35.6 °F 62% 30.06 in 10.0 mi NW 19.6 mph 29.9 mph N/A   Clear
11:35 AM 48.2 °F - 35.6 °F 62% 30.06 in 10.0 mi WNW 21.9 mph 28.8 mph N/A   Clear
11:55 AM 50.0 °F - 35.6 °F 58% 30.07 in 10.0 mi WNW 21.9 mph 27.6 mph N/A   Clear
12:15 PM 50.0 °F - 35.6 °F 58% 30.07 in 10.0 mi WNW 23.0 mph 29.9 mph N/A   Clear
12:35 PM 50.0 °F - 35.6 °F 58% 30.07 in 10.0 mi WNW 24.2 mph 32.2 mph N/A   Clear
12:55 PM 50.0 °F - 35.6 °F 58% 30.07 in 10.0 mi WNW 26.5 mph 32.2 mph N/A   Clear
1:15 PM 50.0 °F - 35.6 °F 58% 30.07 in 10.0 mi WNW 20.7 mph 28.8 mph N/A   Clear
1:35 PM 51.8 °F - 35.6 °F 54% 30.07 in 10.0 mi WNW 23.0 mph 31.1 mph N/A   Clear
1:55 PM 51.8 °F - 35.6 °F 54% 30.07 in 10.0 mi WNW 23.0 mph 34.5 mph N/A   Clear
2:15 PM 50.0 °F - 35.6 °F 58% 30.08 in 10.0 mi WNW 25.3 mph 34.5 mph N/A   Clear
2:35 PM 50.0 °F - 35.6 °F 58% 30.09 in 10.0 mi WNW 25.3 mph 33.4 mph N/A   Clear
2:55 PM 50.0 °F - 35.6 °F 58% 30.09 in 10.0 mi WNW 24.2 mph 31.1 mph N/A   Clear
3:15 PM 50.0 °F - 35.6 °F 58% 30.10 in 10.0 mi WNW 19.6 mph 28.8 mph N/A   Clear
3:35 PM 50.0 °F - 35.6 °F 58% 30.11 in 10.0 mi WNW 21.9 mph - N/A   Clear
3:55 PM 48.2 °F - 33.8 °F 58% 30.12 in 10.0 mi WNW 19.6 mph 27.6 mph N/A   Clear
4:15 PM 48.2 °F - 33.8 °F 58% 30.12 in 10.0 mi NW 19.6 mph 28.8 mph N/A   Clear
4:35 PM 46.4 °F 39.8 °F 33.8 °F 62% 30.13 in 10.0 mi WNW 16.1 mph - N/A   Clear
4:55 PM 44.6 °F 37.2 °F 32.0 °F 61% 30.14 in 10.0 mi NW 17.3 mph 24.2 mph N/A   Clear
5:15 PM 42.8 °F 35.1 °F 32.0 °F 66% 30.15 in 10.0 mi NW 16.1 mph - N/A   Clear
5:35 PM 41.0 °F 33.9 °F 32.0 °F 70% 30.15 in 10.0 mi WNW 12.7 mph - N/A   Clear
5:55 PM 39.2 °F 32.0 °F 32.0 °F 75% 30.16 in 10.0 mi WNW 11.5 mph - N/A   Clear
6:15 PM 37.4 °F 30.3 °F 32.0 °F 81% 30.18 in 10.0 mi West 10.4 mph - N/A   Clear
6:35 PM 37.4 °F 30.8 °F 32.0 °F 81% 30.19 in 10.0 mi West 9.2 mph - N/A   Clear
6:55 PM 35.6 °F 28.6 °F 32.0 °F 87% 30.20 in 10.0 mi West 9.2 mph - N/A   Clear
7:15 PM 33.8 °F 25.8 °F 30.2 °F 87% 30.20 in 10.0 mi West 10.4 mph - N/A   Clear
7:35 PM 39.2 °F 31.2 °F 30.2 °F 70% 30.21 in 10.0 mi NW 13.8 mph - N/A   Clear
7:55 PM 39.2 °F 30.8 °F 30.2 °F 70% 30.22 in 10.0 mi NW 15.0 mph - N/A   Clear
8:35 PM 35.6 °F 27.1 °F 28.4 °F 75% 30.24 in 10.0 mi NNW 12.7 mph 18.4 mph N/A   Clear
8:55 PM 37.4 °F 28.5 °F 28.4 °F 70% 30.25 in 10.0 mi NNW 15.0 mph - N/A   Clear
9:15 PM 35.6 °F 28.0 °F 26.6 °F 70% 30.26 in 10.0 mi NNW 10.4 mph - N/A   Clear
9:35 PM 35.6 °F 28.0 °F 26.6 °F 70% 30.27 in 10.0 mi NW 10.4 mph - N/A   Clear
9:55 PM 33.8 °F 25.8 °F 26.6 °F 75% 30.27 in 10.0 mi NNW 10.4 mph - N/A   Clear
10:15 PM 33.8 °F 25.3 °F 26.6 °F 75% 30.28 in - NNW 11.5 mph - N/A   Clear
10:35 PM 33.8 °F 26.4 °F 26.6 °F 75% 30.28 in 10.0 mi NW 9.2 mph - N/A   Clear
10:55 PM 30.2 °F 21.3 °F 26.6 °F 86% 30.29 in 10.0 mi WNW 10.4 mph - N/A   Clear
11:15 PM 30.2 °F 21.3 °F 26.6 °F 86% 30.29 in 10.0 mi WNW 10.4 mph - N/A   Clear
11:35 PM 30.2 °F 22.6 °F 26.6 °F 86% 30.30 in 10.0 mi WNW 8.1 mph - N/A   Clear
11:55 PM 30.2 °F 22.6 °F 24.8 °F 80% 30.31 in 10.0 mi WNW 8.1 mph - N/A   Clear